Time,TemperatureF,DewpointF,PressureIn,WindDirection,WindDirectionDegrees,WindSpeedMPH,WindSpeedGustMPH,Humidity,HourlyPrecipIn,Conditions,Clouds,dailyrainin,SoftwareType,DateUTC
2013-12-04 00:00:00,52.2,34.2,29.60,North,0,0.0,0.0,50,0.00,,,0.00,WUHU216HW,2013-12-04 07:00:00,
2013-12-04 00:01:00,52.2,34.2,29.60,North,0,0.0,0.0,50,0.00,,,0.00,WUHU216HW,2013-12-04 07:01:00,
2013-12-04 00:05:00,52.2,34.2,29.60,North,0,0.0,0.0,50,0.00,,,0.00,WUHU216HW,2013-12-04 07:05:00,
2013-12-04 00:06:00,52.2,34.2,29.60,North,0,0.0,0.0,50,0.00,,,0.00,WUHU216HW,2013-12-04 07:06:00,
2013-12-04 00:07:00,52.2,34.2,29.60,North,0,0.0,0.0,50,0.00,,,0.00,WUHU216HW,2013-12-04 07:07:00,
2013-12-04 00:08:00,52.2,34.2,29.60,North,0,0.0,0.0,50,0.00,,,0.00,WUHU216HW,2013-12-04 07:08:00,
2013-12-04 00:30:00,51.7,34.1,29.59,North,0,0.0,0.0,51,0.00,,,0.00,WUHU216HW,2013-12-04 07:30:00,
2013-12-04 00:31:00,51.7,34.1,29.59,North,0,0.0,0.0,51,0.00,,,0.00,WUHU216HW,2013-12-04 07:31:00,
2013-12-04 00:32:00,51.7,34.1,29.59,North,0,0.0,0.0,51,0.00,,,0.00,WUHU216HW,2013-12-04 07:32:00,
2013-12-04 00:35:00,51.7,34.1,29.59,North,0,0.0,0.0,51,0.00,,,0.00,WUHU216HW,2013-12-04 07:35:00,
2013-12-04 00:37:00,51.7,34.1,29.59,North,0,0.0,0.0,51,0.00,,,0.00,WUHU216HW,2013-12-04 07:37:00,
2013-12-04 00:38:00,51.7,34.1,29.59,North,0,0.0,0.0,51,0.00,,,0.00,WUHU216HW,2013-12-04 07:38:00,
2013-12-04 01:00:00,52.2,34.7,29.58,North,0,0.0,0.0,51,0.00,,,0.00,WUHU216HW,2013-12-04 08:00:00,
2013-12-04 01:01:00,52.2,34.7,29.58,North,0,0.0,0.0,51,0.00,,,0.00,WUHU216HW,2013-12-04 08:01:00,
2013-12-04 01:05:00,52.2,34.7,29.58,North,0,0.0,0.0,51,0.00,,,0.00,WUHU216HW,2013-12-04 08:05:00,
2013-12-04 01:06:00,52.2,34.7,29.58,North,0,0.0,0.0,51,0.00,,,0.00,WUHU216HW,2013-12-04 08:06:00,
2013-12-04 01:07:00,52.2,34.7,29.58,North,0,0.0,0.0,51,0.00,,,0.00,WUHU216HW,2013-12-04 08:07:00,
2013-12-04 01:08:00,52.2,34.7,29.58,North,0,0.0,0.0,51,0.00,,,0.00,WUHU216HW,2013-12-04 08:08:00,
2013-12-04 01:30:00,52.2,35.1,29.56,North,0,0.0,0.0,52,0.00,,,0.00,WUHU216HW,2013-12-04 08:30:00,
2013-12-04 01:31:00,52.2,35.1,29.56,North,0,0.0,0.0,52,0.00,,,0.00,WUHU216HW,2013-12-04 08:31:00,
2013-12-04 01:32:00,52.2,35.1,29.56,North,0,0.0,0.0,52,0.00,,,0.00,WUHU216HW,2013-12-04 08:32:00,
2013-12-04 01:33:00,52.2,35.1,29.56,North,0,0.0,0.0,52,0.00,,,0.00,WUHU216HW,2013-12-04 08:33:00,
2013-12-04 01:36:00,52.2,35.1,29.56,North,0,0.0,0.0,52,0.00,,,0.00,WUHU216HW,2013-12-04 08:36:00,
2013-12-04 01:37:00,52.2,35.1,29.56,North,0,0.0,0.0,52,0.00,,,0.00,WUHU216HW,2013-12-04 08:37:00,
2013-12-04 01:38:00,52.2,35.1,29.56,North,0,0.0,0.0,52,0.00,,,0.00,WUHU216HW,2013-12-04 08:38:00,
2013-12-04 02:00:00,52.2,35.6,29.56,North,0,0.0,0.0,53,0.00,,,0.00,WUHU216HW,2013-12-04 09:00:00,
2013-12-04 02:01:00,52.2,35.6,29.56,North,0,0.0,0.0,53,0.00,,,0.00,WUHU216HW,2013-12-04 09:01:00,
2013-12-04 02:02:00,52.2,35.6,29.56,North,0,0.0,0.0,53,0.00,,,0.00,WUHU216HW,2013-12-04 09:02:00,
2013-12-04 02:05:00,52.2,35.6,29.56,North,0,0.0,0.0,53,0.00,,,0.00,WUHU216HW,2013-12-04 09:05:00,
2013-12-04 02:06:00,52.2,35.6,29.56,North,0,0.0,0.0,53,0.00,,,0.00,WUHU216HW,2013-12-04 09:06:00,
2013-12-04 02:07:00,52.2,35.6,29.56,North,0,0.0,0.0,53,0.00,,,0.00,WUHU216HW,2013-12-04 09:07:00,
2013-12-04 02:09:00,52.2,35.6,29.56,North,0,0.0,0.0,53,0.00,,,0.00,WUHU216HW,2013-12-04 09:09:00,
2013-12-04 02:10:00,52.2,35.6,29.56,North,0,0.0,0.0,53,0.00,,,0.00,WUHU216HW,2013-12-04 09:10:00,
2013-12-04 02:30:00,52.2,36.0,29.56,North,0,0.0,0.0,54,0.00,,,0.00,WUHU216HW,2013-12-04 09:30:00,
2013-12-04 02:31:00,52.2,36.0,29.56,North,0,0.0,0.0,54,0.00,,,0.00,WUHU216HW,2013-12-04 09:31:00,
2013-12-04 02:32:00,52.2,36.0,29.56,North,0,0.0,0.0,54,0.00,,,0.00,WUHU216HW,2013-12-04 09:32:00,
2013-12-04 02:33:00,52.2,36.0,29.56,North,0,0.0,0.0,54,0.00,,,0.00,WUHU216HW,2013-12-04 09:33:00,
2013-12-04 02:36:00,52.2,36.0,29.56,North,0,0.0,0.0,54,0.00,,,0.00,WUHU216HW,2013-12-04 09:36:00,
2013-12-04 02:37:00,52.2,36.0,29.56,North,0,0.0,0.0,54,0.00,,,0.00,WUHU216HW,2013-12-04 09:37:00,
2013-12-04 02:40:00,52.2,36.0,29.56,North,0,0.0,0.0,54,0.00,,,0.00,WUHU216HW,2013-12-04 09:40:00,
2013-12-04 03:00:00,52.2,36.5,29.56,North,0,0.0,0.0,55,0.00,,,0.00,WUHU216HW,2013-12-04 10:00:00,
2013-12-04 03:01:00,52.2,36.5,29.56,North,0,0.0,0.0,55,0.00,,,0.00,WUHU216HW,2013-12-04 10:01:00,
2013-12-04 03:02:00,52.2,36.5,29.56,North,0,0.0,0.0,55,0.00,,,0.00,WUHU216HW,2013-12-04 10:02:00,
2013-12-04 03:03:00,52.2,36.5,29.56,North,0,0.0,0.0,55,0.00,,,0.00,WUHU216HW,2013-12-04 10:03:00,
2013-12-04 03:06:00,52.2,36.5,29.56,North,0,0.0,0.0,55,0.00,,,0.00,WUHU216HW,2013-12-04 10:06:00,
2013-12-04 03:08:00,52.2,36.5,29.56,North,0,0.0,0.0,55,0.00,,,0.00,WUHU216HW,2013-12-04 10:08:00,
2013-12-04 03:09:00,52.2,36.5,29.56,North,0,0.0,0.0,55,0.00,,,0.00,WUHU216HW,2013-12-04 10:09:00,
2013-12-04 03:30:00,51.8,36.1,29.56,North,0,0.0,0.0,55,0.00,,,0.00,WUHU216HW,2013-12-04 10:30:00,
2013-12-04 03:31:00,52.0,36.3,29.56,North,0,0.0,0.0,55,0.00,,,0.00,WUHU216HW,2013-12-04 10:31:00,
2013-12-04 03:32:00,52.0,36.3,29.56,North,0,0.0,0.0,55,0.00,,,0.00,WUHU216HW,2013-12-04 10:32:00,
2013-12-04 03:35:00,52.0,36.3,29.56,North,0,0.0,0.0,55,0.00,,,0.00,WUHU216HW,2013-12-04 10:35:00,
2013-12-04 03:36:00,52.0,36.3,29.56,North,0,0.0,0.0,55,0.00,,,0.00,WUHU216HW,2013-12-04 10:36:00,
2013-12-04 03:37:00,52.0,36.3,29.56,North,0,0.0,0.0,55,0.00,,,0.00,WUHU216HW,2013-12-04 10:37:00,
2013-12-04 03:38:00,52.0,36.3,29.56,North,0,0.0,0.0,55,0.00,,,0.00,WUHU216HW,2013-12-04 10:38:00,
2013-12-04 03:40:00,52.0,36.3,29.56,North,0,0.0,0.0,55,0.00,,,0.00,WUHU216HW,2013-12-04 10:40:00,
2013-12-04 04:00:00,51.7,36.8,29.54,North,0,0.0,0.0,57,0.00,,,0.00,WUHU216HW,2013-12-04 11:00:00,
2013-12-04 04:01:00,51.7,36.8,29.54,North,0,0.0,0.0,57,0.00,,,0.00,WUHU216HW,2013-12-04 11:01:00,
2013-12-04 04:02:00,51.7,36.8,29.54,North,0,0.0,0.0,57,0.00,,,0.00,WUHU216HW,2013-12-04 11:02:00,
2013-12-04 04:05:00,51.7,36.8,29.54,North,0,0.0,0.0,57,0.00,,,0.00,WUHU216HW,2013-12-04 11:05:00,
2013-12-04 04:06:00,51.7,36.8,29.54,North,0,0.0,0.0,57,0.00,,,0.00,WUHU216HW,2013-12-04 11:06:00,
2013-12-04 04:08:00,51.7,36.8,29.54,North,0,0.0,0.0,57,0.00,,,0.00,WUHU216HW,2013-12-04 11:08:00,
2013-12-04 04:30:00,51.1,37.3,29.54,North,0,0.0,0.0,59,0.00,,,0.00,WUHU216HW,2013-12-04 11:30:00,
2013-12-04 04:31:00,51.1,37.3,29.54,North,0,0.0,0.0,59,0.00,,,0.00,WUHU216HW,2013-12-04 11:31:00,
2013-12-04 04:32:00,51.1,37.3,29.54,North,0,0.0,0.0,59,0.00,,,0.00,WUHU216HW,2013-12-04 11:32:00,
2013-12-04 04:33:00,51.1,37.3,29.54,North,0,0.0,0.0,59,0.00,,,0.00,WUHU216HW,2013-12-04 11:33:00,
2013-12-04 04:35:00,51.1,37.3,29.54,North,0,0.0,0.0,59,0.00,,,0.00,WUHU216HW,2013-12-04 11:35:00,
2013-12-04 04:36:00,51.1,37.3,29.54,North,0,0.0,0.0,59,0.00,,,0.00,WUHU216HW,2013-12-04 11:36:00,
2013-12-04 04:37:00,51.1,37.3,29.54,North,0,0.0,0.0,59,0.00,,,0.00,WUHU216HW,2013-12-04 11:37:00,
2013-12-04 04:38:00,51.1,37.3,29.54,North,0,0.0,0.0,59,0.00,,,0.00,WUHU216HW,2013-12-04 11:38:00,
2013-12-04 04:39:00,51.1,37.3,29.54,North,0,0.0,0.0,59,0.00,,,0.00,WUHU216HW,2013-12-04 11:39:00,
2013-12-04 05:00:00,51.3,37.9,29.54,North,0,0.0,0.0,60,0.00,,,0.00,WUHU216HW,2013-12-04 12:00:00,
2013-12-04 05:01:00,51.1,37.7,29.54,North,0,0.0,0.0,60,0.00,,,0.00,WUHU216HW,2013-12-04 12:01:00,
2013-12-04 05:02:00,51.1,37.7,29.54,North,0,0.0,0.0,60,0.00,,,0.00,WUHU216HW,2013-12-04 12:02:00,
2013-12-04 05:05:00,51.1,37.7,29.54,North,0,0.0,0.0,60,0.00,,,0.00,WUHU216HW,2013-12-04 12:05:00,
2013-12-04 05:06:00,51.1,37.7,29.54,North,0,0.0,0.0,60,0.00,,,0.00,WUHU216HW,2013-12-04 12:06:00,
2013-12-04 05:07:00,51.1,37.7,29.54,North,0,0.0,0.0,60,0.00,,,0.00,WUHU216HW,2013-12-04 12:07:00,
2013-12-04 05:30:00,51.3,37.9,29.55,North,0,0.0,0.0,60,0.00,,,0.00,WUHU216HW,2013-12-04 12:30:00,
2013-12-04 05:31:00,51.3,37.9,29.55,North,0,0.0,0.0,60,0.00,,,0.00,WUHU216HW,2013-12-04 12:31:00,
2013-12-04 05:35:00,51.3,37.9,29.55,North,0,0.0,0.0,60,0.00,,,0.00,WUHU216HW,2013-12-04 12:35:00,
2013-12-04 05:36:00,51.3,37.9,29.55,North,0,0.0,0.0,60,0.00,,,0.00,WUHU216HW,2013-12-04 12:36:00,
2013-12-04 05:38:00,51.3,37.9,29.55,North,0,0.0,0.0,60,0.00,,,0.00,WUHU216HW,2013-12-04 12:38:00,
2013-12-04 06:00:00,51.3,38.3,29.57,North,0,0.0,0.0,61,0.00,,,0.00,WUHU216HW,2013-12-04 13:00:00,
2013-12-04 06:01:00,51.3,38.3,29.57,North,0,0.0,0.0,61,0.00,,,0.00,WUHU216HW,2013-12-04 13:01:00,
2013-12-04 06:02:00,51.3,38.3,29.57,North,0,0.0,0.0,61,0.00,,,0.00,WUHU216HW,2013-12-04 13:02:00,
2013-12-04 06:05:00,51.3,38.3,29.57,North,0,0.0,0.0,61,0.00,,,0.00,WUHU216HW,2013-12-04 13:05:00,
2013-12-04 06:06:00,51.3,38.3,29.57,North,0,0.0,0.0,61,0.00,,,0.00,WUHU216HW,2013-12-04 13:06:00,
2013-12-04 06:07:00,51.3,38.3,29.57,North,0,0.0,0.0,61,0.00,,,0.00,WUHU216HW,2013-12-04 13:07:00,
2013-12-04 06:08:00,51.3,38.3,29.57,North,0,0.0,0.0,61,0.00,,,0.00,WUHU216HW,2013-12-04 13:08:00,
2013-12-04 06:30:00,51.5,38.9,29.58,North,0,0.0,0.0,62,0.00,,,0.00,WUHU216HW,2013-12-04 13:30:00,
2013-12-04 06:31:00,51.5,38.9,29.58,North,0,0.0,0.0,62,0.00,,,0.00,WUHU216HW,2013-12-04 13:31:00,
2013-12-04 06:32:00,51.5,38.9,29.58,North,0,0.0,0.0,62,0.00,,,0.00,WUHU216HW,2013-12-04 13:32:00,
2013-12-04 06:35:00,51.5,38.9,29.58,North,0,0.0,0.0,62,0.00,,,0.00,WUHU216HW,2013-12-04 13:35:00,
2013-12-04 06:36:00,51.5,38.9,29.58,North,0,0.0,0.0,62,0.00,,,0.00,WUHU216HW,2013-12-04 13:36:00,
2013-12-04 06:37:00,51.5,38.9,29.58,North,0,0.0,0.0,62,0.00,,,0.00,WUHU216HW,2013-12-04 13:37:00,
2013-12-04 07:00:00,50.4,39.9,29.59,North,0,0.0,0.0,67,0.01,,,0.01,WUHU216HW,2013-12-04 14:00:00,
2013-12-04 07:01:00,50.2,39.7,29.59,North,0,0.0,0.0,67,0.01,,,0.01,WUHU216HW,2013-12-04 14:01:00,
2013-12-04 07:02:00,50.2,39.7,29.59,North,0,0.0,0.0,67,0.01,,,0.01,WUHU216HW,2013-12-04 14:02:00,
2013-12-04 07:04:00,50.2,39.7,29.59,North,0,0.0,0.0,67,0.01,,,0.01,WUHU216HW,2013-12-04 14:04:00,
2013-12-04 07:05:00,50.2,39.7,29.59,North,0,0.0,0.0,67,0.01,,,0.01,WUHU216HW,2013-12-04 14:05:00,
2013-12-04 07:06:00,50.2,39.7,29.59,North,0,0.0,0.0,67,0.01,,,0.01,WUHU216HW,2013-12-04 14:06:00,
2013-12-04 07:07:00,50.2,39.7,29.59,North,0,0.0,0.0,67,0.01,,,0.01,WUHU216HW,2013-12-04 14:07:00,
2013-12-04 07:09:00,50.2,39.7,29.59,North,0,0.0,0.0,67,0.01,,,0.01,WUHU216HW,2013-12-04 14:09:00,
2013-12-04 07:30:00,48.4,42.1,29.59,North,0,0.0,0.0,79,0.03,,,0.03,WUHU216HW,2013-12-04 14:30:00,
2013-12-04 07:31:00,48.4,42.1,29.59,North,0,0.0,0.0,79,0.03,,,0.03,WUHU216HW,2013-12-04 14:31:00,
2013-12-04 07:33:00,48.4,42.1,29.59,North,0,0.0,0.0,79,0.03,,,0.03,WUHU216HW,2013-12-04 14:33:00,
2013-12-04 07:36:00,48.4,42.1,29.59,North,0,0.0,0.0,79,0.03,,,0.03,WUHU216HW,2013-12-04 14:36:00,
2013-12-04 07:37:00,48.4,42.1,29.59,North,0,0.0,0.0,79,0.03,,,0.03,WUHU216HW,2013-12-04 14:37:00,
2013-12-04 07:39:00,48.4,42.1,29.59,North,0,0.0,0.0,79,0.03,,,0.03,WUHU216HW,2013-12-04 14:39:00,
2013-12-04 08:00:00,48.1,41.5,29.60,North,0,0.0,0.0,78,0.02,,,0.03,WUHU216HW,2013-12-04 15:00:00,
2013-12-04 08:01:00,48.1,41.5,29.60,North,0,0.0,0.0,78,0.02,,,0.03,WUHU216HW,2013-12-04 15:01:00,
2013-12-04 08:02:00,48.1,41.5,29.60,North,0,0.0,0.0,78,0.02,,,0.03,WUHU216HW,2013-12-04 15:02:00,
2013-12-04 08:05:00,48.1,41.5,29.60,North,0,0.0,0.0,78,0.02,,,0.03,WUHU216HW,2013-12-04 15:05:00,
2013-12-04 08:06:00,48.1,41.5,29.60,North,0,0.0,0.0,78,0.02,,,0.03,WUHU216HW,2013-12-04 15:06:00,
2013-12-04 08:07:00,48.1,41.5,29.60,North,0,0.0,0.0,78,0.02,,,0.03,WUHU216HW,2013-12-04 15:07:00,
2013-12-04 08:30:00,48.2,41.6,29.61,North,0,0.0,0.0,78,0.01,,,0.04,WUHU216HW,2013-12-04 15:30:00,
2013-12-04 08:31:00,48.2,41.6,29.61,North,0,0.0,0.0,78,0.01,,,0.04,WUHU216HW,2013-12-04 15:31:00,
2013-12-04 08:32:00,48.2,41.6,29.61,North,0,0.0,0.0,78,0.01,,,0.04,WUHU216HW,2013-12-04 15:32:00,
2013-12-04 08:35:00,48.2,41.6,29.61,North,0,0.0,0.0,78,0.01,,,0.04,WUHU216HW,2013-12-04 15:35:00,
2013-12-04 08:36:00,48.2,41.6,29.61,North,0,0.0,0.0,78,0.01,,,0.04,WUHU216HW,2013-12-04 15:36:00,
2013-12-04 08:38:00,48.2,41.6,29.61,North,0,0.0,0.0,78,0.01,,,0.04,WUHU216HW,2013-12-04 15:38:00,
2013-12-04 08:39:00,48.2,41.6,29.61,North,0,0.0,0.0,78,0.01,,,0.04,WUHU216HW,2013-12-04 15:39:00,
2013-12-04 09:00:00,45.7,37.5,29.64,North,0,0.0,0.0,73,0.01,,,0.04,WUHU216HW,2013-12-04 16:00:00,
2013-12-04 09:02:00,45.7,37.5,29.64,North,0,0.0,0.0,73,0.01,,,0.04,WUHU216HW,2013-12-04 16:02:00,
2013-12-04 09:05:00,45.7,37.5,29.64,North,0,0.0,0.0,73,0.01,,,0.04,WUHU216HW,2013-12-04 16:05:00,
2013-12-04 09:06:00,45.7,37.5,29.64,North,0,0.0,0.0,73,0.01,,,0.04,WUHU216HW,2013-12-04 16:06:00,
2013-12-04 09:07:00,45.7,37.5,29.64,North,0,0.0,0.0,73,0.01,,,0.04,WUHU216HW,2013-12-04 16:07:00,
2013-12-04 09:08:00,45.7,37.5,29.64,North,0,0.0,0.0,73,0.01,,,0.04,WUHU216HW,2013-12-04 16:08:00,
2013-12-04 09:09:00,45.7,37.5,29.64,North,0,0.0,0.0,73,0.01,,,0.04,WUHU216HW,2013-12-04 16:09:00,
2013-12-04 09:30:00,41.2,35.7,29.66,North,0,0.0,0.0,81,0.01,,,0.05,WUHU216HW,2013-12-04 16:30:00,
2013-12-04 09:31:00,41.2,35.7,29.66,North,0,0.0,0.0,81,0.01,,,0.05,WUHU216HW,2013-12-04 16:31:00,
2013-12-04 09:32:00,41.2,35.7,29.66,North,0,0.0,0.0,81,0.01,,,0.05,WUHU216HW,2013-12-04 16:32:00,
2013-12-04 09:33:00,41.2,35.7,29.66,North,0,0.0,0.0,81,0.01,,,0.05,WUHU216HW,2013-12-04 16:33:00,
2013-12-04 09:35:00,41.2,35.7,29.66,North,0,0.0,0.0,81,0.01,,,0.05,WUHU216HW,2013-12-04 16:35:00,
2013-12-04 09:36:00,41.2,35.7,29.66,North,0,0.0,0.0,81,0.01,,,0.05,WUHU216HW,2013-12-04 16:36:00,
2013-12-04 09:37:00,41.2,35.7,29.66,North,0,0.0,0.0,81,0.01,,,0.05,WUHU216HW,2013-12-04 16:37:00,
2013-12-04 09:38:00,41.2,35.7,29.66,North,0,0.0,0.0,81,0.01,,,0.05,WUHU216HW,2013-12-04 16:38:00,
2013-12-04 09:40:00,41.2,35.7,29.66,North,0,0.0,0.0,81,0.01,,,0.05,WUHU216HW,2013-12-04 16:40:00,
2013-12-04 10:00:00,40.5,35.4,29.69,North,0,0.0,0.0,82,0.01,,,0.06,WUHU216HW,2013-12-04 17:00:00,
2013-12-04 10:01:00,40.3,35.2,29.69,North,0,0.0,0.0,82,0.01,,,0.06,WUHU216HW,2013-12-04 17:01:00,
2013-12-04 10:02:00,40.3,35.2,29.69,North,0,0.0,0.0,82,0.01,,,0.06,WUHU216HW,2013-12-04 17:02:00,
2013-12-04 10:04:00,40.3,35.2,29.69,North,0,0.0,0.0,82,0.01,,,0.06,WUHU216HW,2013-12-04 17:04:00,
2013-12-04 10:05:00,40.3,35.2,29.69,North,0,0.0,0.0,82,0.01,,,0.06,WUHU216HW,2013-12-04 17:05:00,
2013-12-04 10:07:00,40.3,35.2,29.69,North,0,0.0,0.0,82,0.01,,,0.06,WUHU216HW,2013-12-04 17:07:00,
2013-12-04 10:10:00,40.3,35.2,29.69,North,0,0.0,0.0,82,0.01,,,0.06,WUHU216HW,2013-12-04 17:10:00,
2013-12-04 10:30:00,40.0,35.5,29.72,North,0,0.0,0.0,84,0.01,,,0.06,WUHU216HW,2013-12-04 17:30:00,
2013-12-04 10:31:00,40.0,35.5,29.72,North,0,0.0,0.0,84,0.01,,,0.06,WUHU216HW,2013-12-04 17:31:00,
2013-12-04 10:36:00,40.0,35.5,29.72,North,0,0.0,0.0,84,0.01,,,0.06,WUHU216HW,2013-12-04 17:36:00,
2013-12-04 10:37:00,40.0,35.5,29.72,North,0,0.0,0.0,84,0.01,,,0.06,WUHU216HW,2013-12-04 17:37:00,
2013-12-04 11:00:00,40.9,35.7,29.73,North,0,0.0,0.0,82,0.00,,,0.06,WUHU216HW,2013-12-04 18:00:00,
2013-12-04 11:01:00,40.9,35.7,29.73,North,0,0.0,0.0,82,0.00,,,0.06,WUHU216HW,2013-12-04 18:01:00,
2013-12-04 11:05:00,40.9,35.7,29.73,North,0,0.0,0.0,82,0.00,,,0.06,WUHU216HW,2013-12-04 18:05:00,
2013-12-04 11:06:00,40.9,35.7,29.73,North,0,0.0,0.0,82,0.00,,,0.06,WUHU216HW,2013-12-04 18:06:00,
2013-12-04 11:07:00,40.9,35.7,29.73,North,0,0.0,0.0,82,0.00,,,0.06,WUHU216HW,2013-12-04 18:07:00,
2013-12-04 11:30:00,40.0,35.2,29.73,North,0,0.0,0.0,83,0.00,,,0.06,WUHU216HW,2013-12-04 18:30:00,
2013-12-04 11:31:00,40.0,35.2,29.73,North,0,0.0,0.0,83,0.00,,,0.06,WUHU216HW,2013-12-04 18:31:00,
2013-12-04 11:32:00,40.0,35.2,29.73,North,0,0.0,0.0,83,0.00,,,0.06,WUHU216HW,2013-12-04 18:32:00,
2013-12-04 11:36:00,40.0,35.2,29.73,North,0,0.0,0.0,83,0.00,,,0.06,WUHU216HW,2013-12-04 18:36:00,
2013-12-04 11:37:00,40.0,35.2,29.73,North,0,0.0,0.0,83,0.00,,,0.06,WUHU216HW,2013-12-04 18:37:00,
2013-12-04 11:38:00,40.0,35.2,29.73,North,0,0.0,0.0,83,0.00,,,0.06,WUHU216HW,2013-12-04 18:38:00,
2013-12-04 12:00:00,41.4,35.9,29.74,North,0,0.0,0.0,81,0.00,,,0.06,WUHU216HW,2013-12-04 19:00:00,
2013-12-04 12:01:00,41.4,35.9,29.74,North,0,0.0,0.0,81,0.00,,,0.06,WUHU216HW,2013-12-04 19:01:00,
2013-12-04 12:05:00,41.4,35.9,29.74,North,0,0.0,0.0,81,0.00,,,0.06,WUHU216HW,2013-12-04 19:05:00,
2013-12-04 12:06:00,41.4,35.9,29.74,North,0,0.0,0.0,81,0.00,,,0.06,WUHU216HW,2013-12-04 19:06:00,
2013-12-04 12:07:00,41.4,35.9,29.74,North,0,0.0,0.0,81,0.00,,,0.06,WUHU216HW,2013-12-04 19:07:00,
2013-12-04 12:30:00,41.4,34.4,29.73,North,0,0.0,0.0,76,0.00,,,0.06,WUHU216HW,2013-12-04 19:30:00,
2013-12-04 12:31:00,41.4,34.0,29.73,North,0,0.0,0.0,75,0.00,,,0.06,WUHU216HW,2013-12-04 19:31:00,
2013-12-04 12:32:00,41.4,34.0,29.73,North,0,0.0,0.0,75,0.00,,,0.06,WUHU216HW,2013-12-04 19:32:00,
2013-12-04 12:35:00,41.4,34.0,29.73,North,0,0.0,0.0,75,0.00,,,0.06,WUHU216HW,2013-12-04 19:35:00,
2013-12-04 12:36:00,41.4,34.0,29.73,North,0,0.0,0.0,75,0.00,,,0.06,WUHU216HW,2013-12-04 19:36:00,
2013-12-04 12:37:00,41.4,34.0,29.73,North,0,0.0,0.0,75,0.00,,,0.06,WUHU216HW,2013-12-04 19:37:00,
2013-12-04 12:38:00,41.4,34.0,29.73,North,0,0.0,0.0,75,0.00,,,0.06,WUHU216HW,2013-12-04 19:38:00,
2013-12-04 13:00:00,42.5,34.1,29.73,North,0,0.0,0.0,72,0.00,,,0.06,WUHU216HW,2013-12-04 20:00:00,
2013-12-04 13:01:00,42.5,34.1,29.73,North,0,0.0,0.0,72,0.00,,,0.06,WUHU216HW,2013-12-04 20:01:00,
2013-12-04 13:02:00,42.5,34.1,29.73,North,0,0.0,0.0,72,0.00,,,0.06,WUHU216HW,2013-12-04 20:02:00,
2013-12-04 13:05:00,42.5,34.1,29.73,North,0,0.0,0.0,72,0.00,,,0.06,WUHU216HW,2013-12-04 20:05:00,
2013-12-04 13:06:00,42.5,34.1,29.73,North,0,0.0,0.0,72,0.00,,,0.06,WUHU216HW,2013-12-04 20:06:00,
2013-12-04 13:07:00,42.5,34.1,29.73,North,0,0.0,0.0,72,0.00,,,0.06,WUHU216HW,2013-12-04 20:07:00,
2013-12-04 13:08:00,42.5,34.1,29.73,North,0,0.0,0.0,72,0.00,,,0.06,WUHU216HW,2013-12-04 20:08:00,
2013-12-04 13:30:00,42.8,32.7,29.74,North,0,0.0,0.0,67,0.00,,,0.06,WUHU216HW,2013-12-04 20:30:00,
2013-12-04 13:31:00,42.8,32.7,29.74,North,0,0.0,0.0,67,0.00,,,0.06,WUHU216HW,2013-12-04 20:31:00,
2013-12-04 13:32:00,42.8,32.7,29.74,North,0,0.0,0.0,67,0.00,,,0.06,WUHU216HW,2013-12-04 20:32:00,
2013-12-04 13:34:00,42.8,32.7,29.74,North,0,0.0,0.0,67,0.00,,,0.06,WUHU216HW,2013-12-04 20:34:00,
2013-12-04 13:35:00,42.8,32.7,29.74,North,0,0.0,0.0,67,0.00,,,0.06,WUHU216HW,2013-12-04 20:35:00,
2013-12-04 13:36:00,42.8,32.7,29.74,North,0,0.0,0.0,67,0.00,,,0.06,WUHU216HW,2013-12-04 20:36:00,
2013-12-04 13:37:00,42.8,32.7,29.74,North,0,0.0,0.0,67,0.00,,,0.06,WUHU216HW,2013-12-04 20:37:00,
2013-12-04 13:39:00,42.8,32.7,29.74,North,0,0.0,0.0,67,0.00,,,0.06,WUHU216HW,2013-12-04 20:39:00,
2013-12-04 14:00:00,43.9,33.3,29.74,North,0,0.0,0.0,66,0.00,,,0.06,WUHU216HW,2013-12-04 21:00:00,
2013-12-04 14:01:00,43.9,33.3,29.74,North,0,0.0,0.0,66,0.00,,,0.06,WUHU216HW,2013-12-04 21:01:00,
2013-12-04 14:02:00,43.9,33.3,29.74,North,0,0.0,0.0,66,0.00,,,0.06,WUHU216HW,2013-12-04 21:02:00,
2013-12-04 14:03:00,43.9,33.3,29.74,North,0,0.0,0.0,66,0.00,,,0.06,WUHU216HW,2013-12-04 21:03:00,
2013-12-04 14:05:00,43.9,33.3,29.74,North,0,0.0,0.0,66,0.00,,,0.06,WUHU216HW,2013-12-04 21:05:00,
2013-12-04 14:06:00,43.9,33.3,29.74,North,0,0.0,0.0,66,0.00,,,0.06,WUHU216HW,2013-12-04 21:06:00,
2013-12-04 14:07:00,43.9,33.3,29.74,North,0,0.0,0.0,66,0.00,,,0.06,WUHU216HW,2013-12-04 21:07:00,
2013-12-04 14:08:00,43.9,33.3,29.74,North,0,0.0,0.0,66,0.00,,,0.06,WUHU216HW,2013-12-04 21:08:00,
2013-12-04 14:10:00,43.9,33.3,29.74,North,0,0.0,0.0,66,0.00,,,0.06,WUHU216HW,2013-12-04 21:10:00,
2013-12-04 14:30:00,44.3,32.9,29.74,North,0,0.0,0.0,64,0.00,,,0.06,WUHU216HW,2013-12-04 21:30:00,
2013-12-04 14:31:00,44.3,32.9,29.74,North,0,0.0,0.0,64,0.00,,,0.06,WUHU216HW,2013-12-04 21:31:00,
2013-12-04 14:36:00,44.3,32.9,29.74,North,0,0.0,0.0,64,0.00,,,0.06,WUHU216HW,2013-12-04 21:36:00,
2013-12-04 14:38:00,44.3,32.9,29.74,North,0,0.0,0.0,64,0.00,,,0.06,WUHU216HW,2013-12-04 21:38:00,
2013-12-04 14:39:00,44.3,32.9,29.74,North,0,0.0,0.0,64,0.00,,,0.06,WUHU216HW,2013-12-04 21:39:00,
2013-12-04 15:00:00,45.4,33.5,29.74,North,0,0.0,0.0,63,0.00,,,0.06,WUHU216HW,2013-12-04 22:00:00,
2013-12-04 15:02:00,45.4,33.1,29.74,North,0,0.0,0.0,62,0.00,,,0.06,WUHU216HW,2013-12-04 22:02:00,
2013-12-04 15:05:00,45.4,33.1,29.74,North,0,0.0,0.0,62,0.00,,,0.06,WUHU216HW,2013-12-04 22:05:00,
2013-12-04 15:06:00,45.4,33.1,29.74,North,0,0.0,0.0,62,0.00,,,0.06,WUHU216HW,2013-12-04 22:06:00,
2013-12-04 15:07:00,45.4,33.1,29.74,North,0,0.0,0.0,62,0.00,,,0.06,WUHU216HW,2013-12-04 22:07:00,
2013-12-04 15:08:00,45.4,33.1,29.74,North,0,0.0,0.0,62,0.00,,,0.06,WUHU216HW,2013-12-04 22:08:00,
2013-12-04 15:30:00,45.9,33.6,29.75,North,0,0.0,0.0,62,0.00,,,0.06,WUHU216HW,2013-12-04 22:30:00,
2013-12-04 15:31:00,45.9,33.6,29.75,North,0,0.0,0.0,62,0.00,,,0.06,WUHU216HW,2013-12-04 22:31:00,
2013-12-04 15:32:00,45.9,33.6,29.75,North,0,0.0,0.0,62,0.00,,,0.06,WUHU216HW,2013-12-04 22:32:00,
2013-12-04 15:36:00,45.9,33.6,29.75,North,0,0.0,0.0,62,0.00,,,0.06,WUHU216HW,2013-12-04 22:36:00,
2013-12-04 15:37:00,45.9,33.6,29.75,North,0,0.0,0.0,62,0.00,,,0.06,WUHU216HW,2013-12-04 22:37:00,
2013-12-04 15:38:00,45.9,33.6,29.75,North,0,0.0,0.0,62,0.00,,,0.06,WUHU216HW,2013-12-04 22:38:00,
2013-12-04 16:00:00,46.1,34.6,29.75,North,0,0.0,0.0,64,0.00,,,0.06,WUHU216HW,2013-12-04 23:00:00,
2013-12-04 16:01:00,46.1,34.9,29.75,North,0,0.0,0.0,65,0.00,,,0.06,WUHU216HW,2013-12-04 23:01:00,
2013-12-04 16:06:00,46.1,34.9,29.75,North,0,0.0,0.0,65,0.00,,,0.06,WUHU216HW,2013-12-04 23:06:00,
2013-12-04 16:07:00,46.1,34.9,29.75,North,0,0.0,0.0,65,0.00,,,0.06,WUHU216HW,2013-12-04 23:07:00,
2013-12-04 16:30:00,45.7,34.6,29.76,North,0,0.0,0.0,65,0.00,,,0.06,WUHU216HW,2013-12-04 23:30:00,
2013-12-04 16:31:00,45.7,34.6,29.76,North,0,0.0,0.0,65,0.00,,,0.06,WUHU216HW,2013-12-04 23:31:00,
2013-12-04 16:32:00,45.7,34.6,29.76,North,0,0.0,0.0,65,0.00,,,0.06,WUHU216HW,2013-12-04 23:32:00,
2013-12-04 16:34:00,45.7,34.6,29.76,North,0,0.0,0.0,65,0.00,,,0.06,WUHU216HW,2013-12-04 23:34:00,
2013-12-04 16:36:00,45.7,34.6,29.76,North,0,0.0,0.0,65,0.00,,,0.06,WUHU216HW,2013-12-04 23:36:00,
2013-12-04 16:37:00,45.7,34.6,29.76,North,0,0.0,0.0,65,0.00,,,0.06,WUHU216HW,2013-12-04 23:37:00,
2013-12-04 16:38:00,45.7,34.6,29.76,North,0,0.0,0.0,65,0.00,,,0.06,WUHU216HW,2013-12-04 23:38:00,
2013-12-04 17:00:00,45.2,34.5,29.77,North,0,0.0,0.0,66,0.00,,,0.06,WUHU216HW,2013-12-05 00:00:00,
2013-12-04 17:01:00,45.2,34.5,29.77,North,0,0.0,0.0,66,0.00,,,0.06,WUHU216HW,2013-12-05 00:01:00,
2013-12-04 17:03:00,45.2,34.5,29.77,North,0,0.0,0.0,66,0.00,,,0.06,WUHU216HW,2013-12-05 00:03:00,
2013-12-04 17:05:00,45.2,34.5,29.77,North,0,0.0,0.0,66,0.00,,,0.06,WUHU216HW,2013-12-05 00:05:00,
2013-12-04 17:06:00,45.2,34.5,29.77,North,0,0.0,0.0,66,0.00,,,0.06,WUHU216HW,2013-12-05 00:06:00,
2013-12-04 17:07:00,45.2,34.5,29.77,North,0,0.0,0.0,66,0.00,,,0.06,WUHU216HW,2013-12-05 00:07:00,
2013-12-04 17:09:00,45.2,34.5,29.77,North,0,0.0,0.0,66,0.00,,,0.06,WUHU216HW,2013-12-05 00:09:00,
2013-12-04 17:30:00,43.9,31.0,29.76,North,0,0.0,0.0,60,0.00,,,0.06,WUHU216HW,2013-12-05 00:30:00,
2013-12-04 17:31:00,43.9,31.0,29.76,North,0,0.0,0.0,60,0.00,,,0.06,WUHU216HW,2013-12-05 00:31:00,
2013-12-04 17:32:00,43.9,31.0,29.76,North,0,0.0,0.0,60,0.00,,,0.06,WUHU216HW,2013-12-05 00:32:00,
2013-12-04 17:35:00,43.9,31.0,29.76,North,0,0.0,0.0,60,0.00,,,0.06,WUHU216HW,2013-12-05 00:35:00,
2013-12-04 17:36:00,43.9,31.0,29.76,North,0,0.0,0.0,60,0.00,,,0.06,WUHU216HW,2013-12-05 00:36:00,
2013-12-04 17:37:00,43.9,31.0,29.76,North,0,0.0,0.0,60,0.00,,,0.06,WUHU216HW,2013-12-05 00:37:00,
2013-12-04 17:38:00,43.9,31.0,29.76,North,0,0.0,0.0,60,0.00,,,0.06,WUHU216HW,2013-12-05 00:38:00,
2013-12-04 17:39:00,43.9,31.0,29.76,North,0,0.0,0.0,60,0.00,,,0.06,WUHU216HW,2013-12-05 00:39:00,
2013-12-04 18:00:00,42.8,29.0,29.76,North,0,0.0,0.0,58,0.00,,,0.06,WUHU216HW,2013-12-05 01:00:00,
2013-12-04 18:01:00,42.8,29.0,29.76,North,0,0.0,0.0,58,0.00,,,0.06,WUHU216HW,2013-12-05 01:01:00,
2013-12-04 18:03:00,42.8,29.0,29.76,North,0,0.0,0.0,58,0.00,,,0.06,WUHU216HW,2013-12-05 01:03:00,
2013-12-04 18:05:00,42.8,29.0,29.76,North,0,0.0,0.0,58,0.00,,,0.06,WUHU216HW,2013-12-05 01:05:00,
2013-12-04 18:06:00,42.8,29.0,29.76,North,0,0.0,0.0,58,0.00,,,0.06,WUHU216HW,2013-12-05 01:06:00,
2013-12-04 18:08:00,42.8,29.0,29.76,North,0,0.0,0.0,58,0.00,,,0.06,WUHU216HW,2013-12-05 01:08:00,
2013-12-04 18:09:00,42.8,29.0,29.76,North,0,0.0,0.0,58,0.00,,,0.06,WUHU216HW,2013-12-05 01:09:00,
2013-12-04 18:30:00,42.1,30.0,29.77,North,0,0.0,0.0,62,0.00,,,0.06,WUHU216HW,2013-12-05 01:30:00,
2013-12-04 18:31:00,42.1,30.0,29.77,North,0,0.0,0.0,62,0.00,,,0.06,WUHU216HW,2013-12-05 01:31:00,
2013-12-04 18:32:00,42.1,30.0,29.77,North,0,0.0,0.0,62,0.00,,,0.06,WUHU216HW,2013-12-05 01:32:00,
2013-12-04 18:33:00,42.1,30.0,29.77,North,0,0.0,0.0,62,0.00,,,0.06,WUHU216HW,2013-12-05 01:33:00,
2013-12-04 18:36:00,42.1,30.0,29.77,North,0,0.0,0.0,62,0.00,,,0.06,WUHU216HW,2013-12-05 01:36:00,
2013-12-04 18:37:00,42.1,30.0,29.77,North,0,0.0,0.0,62,0.00,,,0.06,WUHU216HW,2013-12-05 01:37:00,
2013-12-04 18:39:00,42.1,30.0,29.77,North,0,0.0,0.0,62,0.00,,,0.06,WUHU216HW,2013-12-05 01:39:00,
2013-12-04 19:00:00,40.9,30.3,29.78,North,0,0.0,0.0,66,0.00,,,0.06,WUHU216HW,2013-12-05 02:00:00,
2013-12-04 19:01:00,40.9,30.3,29.78,North,0,0.0,0.0,66,0.00,,,0.06,WUHU216HW,2013-12-05 02:01:00,
2013-12-04 19:03:00,40.9,30.3,29.78,North,0,0.0,0.0,66,0.00,,,0.06,WUHU216HW,2013-12-05 02:03:00,
2013-12-04 19:05:00,40.9,30.3,29.78,North,0,0.0,0.0,66,0.00,,,0.06,WUHU216HW,2013-12-05 02:05:00,
2013-12-04 19:06:00,40.9,30.3,29.78,North,0,0.0,0.0,66,0.00,,,0.06,WUHU216HW,2013-12-05 02:06:00,
2013-12-04 19:07:00,40.9,30.3,29.78,North,0,0.0,0.0,66,0.00,,,0.06,WUHU216HW,2013-12-05 02:07:00,
2013-12-04 19:09:00,40.9,30.3,29.78,North,0,0.0,0.0,66,0.00,,,0.06,WUHU216HW,2013-12-05 02:09:00,
2013-12-04 19:30:00,40.0,29.8,29.78,North,0,0.0,0.0,67,0.00,,,0.06,WUHU216HW,2013-12-05 02:30:00,
2013-12-04 19:31:00,40.0,29.8,29.78,North,0,0.0,0.0,67,0.00,,,0.06,WUHU216HW,2013-12-05 02:31:00,
2013-12-04 19:34:00,40.0,29.8,29.78,North,0,0.0,0.0,67,0.00,,,0.06,WUHU216HW,2013-12-05 02:34:00,
2013-12-04 19:36:00,40.0,29.8,29.78,North,0,0.0,0.0,67,0.00,,,0.06,WUHU216HW,2013-12-05 02:36:00,
2013-12-04 19:37:00,40.0,29.8,29.78,North,0,0.0,0.0,67,0.00,,,0.06,WUHU216HW,2013-12-05 02:37:00,
2013-12-04 19:39:00,40.0,29.8,29.78,North,0,0.0,0.0,67,0.00,,,0.06,WUHU216HW,2013-12-05 02:39:00,
2013-12-04 19:40:00,40.0,29.8,29.78,North,0,0.0,0.0,67,0.00,,,0.06,WUHU216HW,2013-12-05 02:40:00,
2013-12-04 20:00:00,39.1,29.7,29.78,North,0,0.0,0.0,69,0.00,,,0.06,WUHU216HW,2013-12-05 03:00:00,
2013-12-04 20:01:00,39.1,29.7,29.78,North,0,0.0,0.0,69,0.00,,,0.06,WUHU216HW,2013-12-05 03:01:00,
2013-12-04 20:03:00,39.1,29.7,29.78,North,0,0.0,0.0,69,0.00,,,0.06,WUHU216HW,2013-12-05 03:03:00,
2013-12-04 20:05:00,39.1,29.7,29.78,North,0,0.0,0.0,69,0.00,,,0.06,WUHU216HW,2013-12-05 03:05:00,
2013-12-04 20:06:00,39.1,29.7,29.78,North,0,0.0,0.0,69,0.00,,,0.06,WUHU216HW,2013-12-05 03:06:00,
2013-12-04 20:07:00,39.1,29.7,29.78,North,0,0.0,0.0,69,0.00,,,0.06,WUHU216HW,2013-12-05 03:07:00,
2013-12-04 20:30:00,38.5,29.6,29.78,North,0,0.0,0.0,70,0.00,,,0.06,WUHU216HW,2013-12-05 03:30:00,
2013-12-04 20:31:00,38.5,29.6,29.78,North,0,0.0,0.0,70,0.00,,,0.06,WUHU216HW,2013-12-05 03:31:00,
2013-12-04 20:34:00,38.5,29.6,29.78,North,0,0.0,0.0,70,0.00,,,0.06,WUHU216HW,2013-12-05 03:34:00,
2013-12-04 20:36:00,38.5,29.6,29.78,North,0,0.0,0.0,70,0.00,,,0.06,WUHU216HW,2013-12-05 03:36:00,
2013-12-04 20:37:00,38.5,29.6,29.78,North,0,0.0,0.0,70,0.00,,,0.06,WUHU216HW,2013-12-05 03:37:00,
2013-12-04 20:39:00,38.5,29.6,29.78,North,0,0.0,0.0,70,0.00,,,0.06,WUHU216HW,2013-12-05 03:39:00,
2013-12-04 20:40:00,38.5,29.6,29.78,North,0,0.0,0.0,70,0.00,,,0.06,WUHU216HW,2013-12-05 03:40:00,
2013-12-04 21:00:00,37.4,29.3,29.78,North,0,0.0,0.0,72,0.00,,,0.06,WUHU216HW,2013-12-05 04:00:00,
2013-12-04 21:01:00,37.4,29.3,29.78,North,0,0.0,0.0,72,0.00,,,0.06,WUHU216HW,2013-12-05 04:01:00,
2013-12-04 21:04:00,37.4,29.3,29.78,North,0,0.0,0.0,72,0.00,,,0.06,WUHU216HW,2013-12-05 04:04:00,
2013-12-04 21:05:00,37.4,29.3,29.78,North,0,0.0,0.0,72,0.00,,,0.06,WUHU216HW,2013-12-05 04:05:00,
2013-12-04 21:06:00,37.4,29.3,29.78,North,0,0.0,0.0,72,0.00,,,0.06,WUHU216HW,2013-12-05 04:06:00,
2013-12-04 21:07:00,37.4,29.3,29.78,North,0,0.0,0.0,72,0.00,,,0.06,WUHU216HW,2013-12-05 04:07:00,
2013-12-04 21:09:00,37.4,29.3,29.78,North,0,0.0,0.0,72,0.00,,,0.06,WUHU216HW,2013-12-05 04:09:00,
2013-12-04 21:30:00,37.1,28.6,29.79,North,0,0.0,0.0,71,0.00,,,0.06,WUHU216HW,2013-12-05 04:30:00,
2013-12-04 21:31:00,37.1,28.6,29.79,North,0,0.0,0.0,71,0.00,,,0.06,WUHU216HW,2013-12-05 04:31:00,
2013-12-04 21:35:00,37.1,28.6,29.79,North,0,0.0,0.0,71,0.00,,,0.06,WUHU216HW,2013-12-05 04:35:00,
2013-12-04 21:36:00,37.1,28.6,29.79,North,0,0.0,0.0,71,0.00,,,0.06,WUHU216HW,2013-12-05 04:36:00,
2013-12-04 21:37:00,37.1,28.6,29.79,North,0,0.0,0.0,71,0.00,,,0.06,WUHU216HW,2013-12-05 04:37:00,
2013-12-04 21:38:00,37.1,28.6,29.79,North,0,0.0,0.0,71,0.00,,,0.06,WUHU216HW,2013-12-05 04:38:00,
2013-12-04 22:00:00,36.7,27.6,29.79,North,0,0.0,0.0,69,0.00,,,0.06,WUHU216HW,2013-12-05 05:00:00,
2013-12-04 22:01:00,36.7,27.6,29.79,North,0,0.0,0.0,69,0.00,,,0.06,WUHU216HW,2013-12-05 05:01:00,
2013-12-04 22:02:00,36.7,27.6,29.79,North,0,0.0,0.0,69,0.00,,,0.06,WUHU216HW,2013-12-05 05:02:00,
2013-12-04 22:04:00,36.7,27.6,29.79,North,0,0.0,0.0,69,0.00,,,0.06,WUHU216HW,2013-12-05 05:04:00,
2013-12-04 22:06:00,36.7,27.6,29.79,North,0,0.0,0.0,69,0.00,,,0.06,WUHU216HW,2013-12-05 05:06:00,
2013-12-04 22:07:00,36.7,27.6,29.79,North,0,0.0,0.0,69,0.00,,,0.06,WUHU216HW,2013-12-05 05:07:00,
2013-12-04 22:08:00,36.7,27.6,29.79,North,0,0.0,0.0,69,0.00,,,0.06,WUHU216HW,2013-12-05 05:08:00,
2013-12-04 22:09:00,36.7,27.6,29.79,North,0,0.0,0.0,69,0.00,,,0.06,WUHU216HW,2013-12-05 05:09:00,
2013-12-04 22:30:00,36.4,26.8,29.79,North,0,0.0,0.0,68,0.00,,,0.06,WUHU216HW,2013-12-05 05:30:00,
2013-12-04 22:31:00,36.4,27.2,29.79,North,0,0.0,0.0,69,0.00,,,0.06,WUHU216HW,2013-12-05 05:31:00,
2013-12-04 22:32:00,36.4,27.2,29.79,North,0,0.0,0.0,69,0.00,,,0.06,WUHU216HW,2013-12-05 05:32:00,
2013-12-04 22:35:00,36.4,27.2,29.79,North,0,0.0,0.0,69,0.00,,,0.06,WUHU216HW,2013-12-05 05:35:00,
2013-12-04 22:36:00,36.4,27.2,29.79,North,0,0.0,0.0,69,0.00,,,0.06,WUHU216HW,2013-12-05 05:36:00,
2013-12-04 22:37:00,36.4,27.2,29.79,North,0,0.0,0.0,69,0.00,,,0.06,WUHU216HW,2013-12-05 05:37:00,
2013-12-04 22:38:00,36.4,27.2,29.79,North,0,0.0,0.0,69,0.00,,,0.06,WUHU216HW,2013-12-05 05:38:00,
2013-12-04 22:39:00,36.4,27.2,29.79,North,0,0.0,0.0,69,0.00,,,0.06,WUHU216HW,2013-12-05 05:39:00,
2013-12-04 23:00:00,35.5,26.6,29.80,North,0,0.0,0.0,70,0.00,,,0.06,WUHU216HW,2013-12-05 06:00:00,
2013-12-04 23:01:00,35.5,26.6,29.80,North,0,0.0,0.0,70,0.00,,,0.06,WUHU216HW,2013-12-05 06:01:00,
2013-12-04 23:02:00,35.5,26.6,29.80,North,0,0.0,0.0,70,0.00,,,0.06,WUHU216HW,2013-12-05 06:02:00,
2013-12-04 23:03:00,35.5,26.6,29.80,North,0,0.0,0.0,70,0.00,,,0.06,WUHU216HW,2013-12-05 06:03:00,
2013-12-04 23:05:00,35.5,26.6,29.80,North,0,0.0,0.0,70,0.00,,,0.06,WUHU216HW,2013-12-05 06:05:00,
2013-12-04 23:06:00,35.5,26.6,29.80,North,0,0.0,0.0,70,0.00,,,0.06,WUHU216HW,2013-12-05 06:06:00,
2013-12-04 23:08:00,35.5,26.6,29.80,North,0,0.0,0.0,70,0.00,,,0.06,WUHU216HW,2013-12-05 06:08:00,
2013-12-04 23:09:00,35.5,26.6,29.80,North,0,0.0,0.0,70,0.00,,,0.06,WUHU216HW,2013-12-05 06:09:00,
2013-12-04 23:30:00,34.7,25.9,29.79,North,0,0.0,0.0,70,0.00,,,0.06,WUHU216HW,2013-12-05 06:30:00,
2013-12-04 23:31:00,34.7,25.9,29.79,North,0,0.0,0.0,70,0.00,,,0.06,WUHU216HW,2013-12-05 06:31:00,
2013-12-04 23:35:00,34.7,25.9,29.79,North,0,0.0,0.0,70,0.00,,,0.06,WUHU216HW,2013-12-05 06:35:00,
2013-12-04 23:36:00,34.7,25.9,29.79,North,0,0.0,0.0,70,0.00,,,0.06,WUHU216HW,2013-12-05 06:36:00,
2013-12-04 23:37:00,34.7,25.9,29.79,North,0,0.0,0.0,70,0.00,,,0.06,WUHU216HW,2013-12-05 06:37:00,
2013-12-04 23:39:00,34.7,25.9,29.79,North,0,0.0,0.0,70,0.00,,,0.06,WUHU216HW,2013-12-05 06:39:00,